CW3904 Weather Reports


time (UTC)temp
C
wind
direction
speed
KPH
gust
KPH
rain 1hr
cm
rain 24hr
cm
rain mn
cm
humidity
%
barometer
mb
20260906104216 17 18 1.6 4.8 0.00 0.00 0.00 94 1016.7
20260906103415 17 18 0.0 4.8 0.00 0.00 0.00 94 1016.6
20260906102614 17 18 0.0 3.2 0.00 0.00 0.00 94 1016.6
20260906101603 18 0 0.0 0.0 0.00 0.00 0.00 94 1016.6
20260906101017 18 18 0.0 3.2 0.00 0.00 0.00 94 1016.6
20260906100215 18 18 0.0 3.2 0.00 0.00 0.00 93 1016.5
20260906095815 18 18 0.0 3.2 0.00 0.00 0.00 93 1016.5
20260906094803 18 18 1.6 4.8 0.00 0.00 0.00 93 1016.4
20260906094003 18 18 1.6 4.8 0.00 0.00 0.00 93 1016.1
20260906093416 18 18 1.6 4.8 0.00 0.00 0.00 93 1016.1
20260906092403 18 18 1.6 4.8 0.00 0.00 0.00 93 1016.1
20260906091813 18 21 1.6 4.8 0.00 0.00 0.00 92 1016.1
20260906090803 18 25 1.6 4.8 0.00 0.00 0.00 92 1016.0
20260906090216 18 23 0.0 3.2 0.00 0.00 0.00 92 1016.1
20260906085603 18 23 0.0 3.2 0.00 0.00 0.00 92 1016.0
20260906084803 18 23 0.0 4.8 0.00 0.00 0.00 92 1016.0
20260906084213 18 23 1.6 4.8 0.00 0.00 0.00 92 1015.9
20260906083203 19 27 1.6 4.8 0.00 0.00 0.00 91 1015.9
20260906082615 19 32 3.2 4.8 0.00 0.00 0.00 91 1015.9
20260906081603 19 32 1.6 3.2 0.00 0.00 0.00 91 1015.8
20260906080803 19 32 1.6 4.8 0.00 0.00 0.00 91 1015.8
20260906080003 19 32 1.6 4.8 0.00 0.00 0.00 91 1015.8
20260906075816 19 32 0.0 4.8 0.00 0.00 0.00 91 1015.8
20260906074803 20 32 1.6 4.8 0.00 0.00 0.00 90 1015.7
20260906074213 20 32 1.6 4.8 0.00 0.00 0.00 90 1015.8
20260906073203 20 19 0.0 4.8 0.00 0.00 0.00 90 1015.6
20260906072403 20 0 0.0 0.0 0.00 0.00 0.00 90 1015.6
20260906071815 20 0 0.0 0.0 0.00 0.00 0.00 90 1015.7
20260906070803 20 21 1.6 4.8 0.00 0.00 0.00 90 1015.6
20260906070212 20 22 1.6 4.8 0.00 0.00 0.00 90 1015.7
20260906065817 20 25 1.6 4.8 0.00 0.00 0.00 90 1015.6
20260906065015 21 22 1.6 4.8 0.00 0.00 0.00 90 1015.7
20260906064003 21 24 0.0 4.8 0.00 0.00 0.00 89 1015.8
20260906063203 21 24 1.6 4.8 0.00 0.00 0.00 89 1015.8
20260906062617 21 24 0.0 3.2 0.00 0.00 0.00 89 1015.9
20260906061815 21 0 0.0 0.0 0.00 0.00 0.00 89 1015.9
20260906060803 21 0 0.0 0.0 0.00 0.00 0.00 89 1015.9
20260906060213 21 0 0.0 0.0 0.00 0.00 0.00 89 1015.7
20260906055817 21 0 0.0 0.0 0.00 0.00 0.00 89 1015.6
20260906054803 21 0 0.0 0.0 0.00 0.00 0.00 89 1015.5
20260906054215 21 0 0.0 0.0 0.00 0.00 0.00 89 1015.4
20260906053203 21 0 0.0 0.0 0.00 0.00 0.00 88 1015.4
20260906052403 21 0 0.0 0.0 0.00 0.00 0.00 87 1015.3
20260906051816 21 0 0.0 0.0 0.00 0.00 0.00 87 1015.4
20260906051015 21 0 0.0 0.0 0.00 0.00 0.00 86 1015.3
20260906050003 21 0 0.0 0.0 0.00 0.00 0.00 86 1015.2
20260906045813 21 0 0.0 0.0 0.00 0.00 0.00 86 1015.2
20260906045017 21 0 0.0 0.0 0.00 0.00 0.00 86 1015.2
20260906044003 21 0 0.0 0.0 0.00 0.00 0.00 86 1015.1
20260906043414 21 0 0.0 0.0 0.00 0.00 0.00 86 1015.0
20260906042613 21 16 1.6 4.8 0.00 0.00 0.00 86 1015.0
20260906041817 21 23 1.6 4.8 0.00 0.00 0.00 86 1015.0
20260906040803 21 16 3.2 6.4 0.00 0.00 0.00 86 1015.1
20260906040219 21 20 1.6 6.4 0.00 0.00 0.00 86 1015.1
20260906035603 21 0 0.0 0.0 0.00 0.00 0.00 86 1015.0
20260906035017 21 25 1.6 4.8 0.00 0.00 0.00 85 1014.9
20260906034216 21 21 3.2 4.8 0.00 0.00 0.00 85 1014.9
20260906033415 22 28 1.6 6.4 0.00 0.00 0.00 85 1014.7
20260906032403 22 22 1.6 4.8 0.00 0.00 0.00 85 1014.8
20260906031812 22 20 1.6 6.4 0.00 0.00 0.00 85 1014.7
20260906031016 22 22 1.6 6.4 0.00 0.00 0.00 85 1014.8
20260906030003 22 18 1.6 4.8 0.00 0.00 0.00 85 1014.7
20260906025814 22 21 1.6 4.8 0.00 0.00 0.00 84 1014.7
20260906024803 22 24 1.6 4.8 0.00 0.00 0.00 84 1014.7
20260906024003 22 0 0.0 0.0 0.00 0.00 0.00 84 1014.8
20260906023415 22 0 0.0 0.0 0.00 0.00 0.00 84 1014.8
20260906022614 22 27 0.0 3.2 0.00 0.00 0.00 84 1014.8
20260906021813 22 23 1.6 4.8 0.00 0.00 0.00 83 1014.6
20260906021017 22 32 0.0 4.8 0.00 0.00 0.00 84 1014.5
20260906020215 22 26 0.0 4.8 0.00 0.00 0.00 84 1014.4
20260906015815 22 27 1.6 4.8 0.00 0.00 0.00 84 1014.3
20260906014803 22 18 1.6 6.4 0.00 0.00 0.00 84 1014.3
20260906014217 22 16 1.6 6.4 0.00 0.00 0.00 84 1014.2
20260906013416 22 25 1.6 6.4 0.00 0.00 0.00 84 1014.1
20260906012615 22 28 3.2 4.8 0.00 0.00 0.00 84 1014.1
20260906011603 23 19 3.2 6.4 0.00 0.00 0.00 85 1013.9
20260906011012 23 17 3.2 6.4 0.00 0.00 0.00 85 1013.8
20260906010003 23 12 3.2 6.4 0.00 0.00 0.00 85 1013.6
20260906005603 23 14 3.2 6.4 0.00 0.00 0.00 85 1013.6
20260906004805 23 19 3.2 6.4 0.00 0.00 0.00 85 1013.6
20260906004003 23 22 3.2 6.4 0.00 0.00 0.00 86 1013.5
20260906003417 23 20 1.6 6.4 0.00 0.00 0.00 87 1013.4
20260906002403 23 23 1.6 4.8 0.00 0.00 0.00 87 1013.2
20260906001814 23 18 1.6 3.2 0.00 0.00 0.00 87 1013.2
20260906000803 23 11 3.2 4.8 0.00 0.00 0.00 87 1013.1
20260906000219 23 6 3.2 6.4 0.00 0.00 0.00 87 1013.1
20260905235603 23 7 4.8 8.0 0.00 0.00 0.00 87 1013.0
20260905235015 23 6 4.8 8.0 0.00 0.00 0.00 87 1013.1
20260905234213 23 353 3.2 4.8 0.00 0.00 0.00 87 1013.0
20260905233417 23 358 3.2 4.8 0.00 0.00 0.00 86 1012.7
20260905232616 23 347 3.2 6.4 0.00 0.00 0.00 86 1012.7
20260905231603 23 347 3.2 6.4 0.00 0.00 0.00 85 1012.6
20260905231013 23 348 4.8 6.4 0.00 0.00 0.00 84 1012.6
20260905230003 24 344 3.2 6.4 0.00 0.00 0.00 83 1012.7
20260905225817 24 347 3.2 6.4 0.00 0.00 0.00 83 1012.7
20260905225015 24 357 4.8 8.0 0.00 0.00 0.00 83 1012.5
20260905224003 24 356 4.8 8.0 0.00 0.00 0.00 83 1012.5
20260905223413 24 355 4.8 9.7 0.00 0.00 0.00 83 1012.5
20260905222617 24 348 4.8 9.7 0.00 0.00 0.00 83 1012.4
20260905221603 25 353 4.8 9.7 0.00 0.00 0.00 82 1012.3
20260905221014 25 349 4.8 8.0 0.00 0.00 0.00 82 1012.3
20260905220213 25 346 4.8 8.0 0.00 0.00 0.00 81 1012.1
20260905215603 25 348 4.8 8.0 0.00 0.00 0.00 80 1012.0
20260905214803 25 348 4.8 8.0 0.00 0.00 0.00 81 1011.9
20260905214003 25 349 4.8 9.7 0.00 0.00 0.00 80 1011.9
20260905213203 25 357 4.8 9.7 0.00 0.00 0.00 80 1012.0
20260905212403 25 354 6.4 9.7 0.00 0.00 0.00 79 1012.0
20260905211603 26 350 6.4 9.7 0.00 0.00 0.00 78 1012.0
20260905210803 26 350 4.8 8.0 0.00 0.00 0.00 78 1011.9
20260905210213 26 353 6.4 11.3 0.00 0.00 0.00 77 1011.9
20260905205603 26 353 6.4 9.7 0.00 0.00 0.00 77 1012.0
20260905204803 26 356 6.4 11.3 0.00 0.00 0.00 76 1011.9
20260905204215 26 351 6.4 9.7 0.00 0.00 0.00 75 1011.9
20260905203203 27 352 4.8 8.0 0.00 0.00 0.00 75 1011.9
20260905202403 27 2 6.4 11.3 0.00 0.00 0.00 73 1011.9
20260905201603 27 360 6.4 9.7 0.00 0.00 0.00 73 1011.8
20260905201015 27 358 4.8 9.7 0.00 0.00 0.00 72 1011.9
20260905200214 28 353 4.8 8.0 0.00 0.00 0.00 72 1011.9
20260905195813 28 355 4.8 9.7 0.00 0.00 0.00 71 1011.9
20260905194803 28 356 4.8 8.0 0.00 0.00 0.00 71 1012.0
20260905194003 28 354 4.8 8.0 0.00 0.00 0.00 71 1012.0
20260905193415 28 351 4.8 8.0 0.00 0.00 0.00 72 1012.1
20260905192613 28 346 4.8 8.0 0.00 0.00 0.00 70 1012.2
20260905191812 28 357 4.8 9.7 0.00 0.00 0.00 70 1012.2
20260905190803 28 343 4.8 8.0 0.00 0.00 0.00 71 1012.2
20260905190215 29 356 4.8 8.0 0.00 0.00 0.00 69 1012.2
20260905185603 29 3 4.8 9.7 0.00 0.00 0.00 70 1012.1
20260905185013 29 8 4.8 9.7 0.00 0.00 0.00 68 1012.1
20260905184217 29 353 4.8 8.0 0.00 0.00 0.00 71 1012.2
20260905183203 29 1 4.8 8.0 0.00 0.00 0.00 71 1012.1
20260905182403 28 357 1.6 6.4 0.00 0.00 0.00 73 1012.2
20260905181813 28 352 3.2 6.4 0.00 0.00 0.00 73 1012.2
20260905180803 28 352 3.2 6.4 0.00 0.00 0.00 71 1012.3
20260905180215 28 1 4.8 8.0 0.00 0.00 0.00 72 1012.3
20260905175815 28 360 3.2 8.0 0.00 0.00 0.00 70 1012.4
20260905174803 28 15 1.6 6.4 0.00 0.00 0.00 74 1012.4
20260905174217 28 11 3.2 6.4 0.00 0.00 0.00 73 1012.4
20260905173203 28 6 3.2 6.4 0.00 0.00 0.00 73 1012.5
20260905172403 28 3 1.6 4.8 0.00 0.00 0.00 72 1012.5
20260905171813 28 0 0.0 0.0 0.00 0.00 0.00 76 1012.5
20260905171017 27 0 0.0 0.0 0.00 0.00 0.00 75 1012.6
20260905170216 27 0 0.0 0.0 0.00 0.00 0.00 76 1012.6
20260905165603 27 0 0.0 0.0 0.00 0.00 0.00 76 1012.8
20260905164803 27 153 0.0 3.2 0.00 0.00 0.00 78 1012.9
20260905164213 27 153 0.0 3.2 0.00 0.00 0.00 77 1012.8
20260905163417 27 0 0.0 0.0 0.00 0.00 0.00 77 1012.8
20260905162403 27 0 0.0 0.0 0.00 0.00 0.00 78 1012.8
20260905161603 27 0 0.0 0.0 0.00 0.00 0.00 78 1012.8
20260905161013 27 20 0.0 1.6 0.00 0.00 0.00 79 1012.8
20260905160217 27 20 1.6 4.8 0.00 0.00 0.00 80 1012.8
20260905155604 26 20 1.6 4.8 0.00 0.00 0.00 80 1012.8
20260905155015 26 20 0.0 3.2 0.00 0.00 0.00 80 1012.8
20260905154213 26 0 0.0 0.0 0.00 0.00 0.00 82 1012.8
20260905153203 26 0 0.0 0.0 0.00 0.00 0.00 83 1012.9
20260905152616 26 0 0.0 0.0 0.00 0.00 0.00 82 1012.8
20260905151815 26 0 0.0 0.0 0.00 0.00 0.00 84 1012.9
20260905151013 25 0 0.0 0.0 0.00 0.00 0.00 85 1012.6
20260905150217 25 0 0.0 0.0 0.00 0.00 0.00 86 1012.4
20260905145817 25 0 0.0 0.0 0.00 0.00 0.00 86 1012.4
20260905144803 25 0 0.0 0.0 0.00 0.00 0.00 87 1012.4
20260905144003 25 0 0.0 0.0 0.00 0.00 0.00 87 1012.5
20260905143413 25 0 0.0 0.0 0.00 0.00 0.00 88 1012.5
20260905142617 24 0 0.0 0.0 0.00 0.00 0.00 89 1012.8
20260905141815 24 0 0.0 0.0 0.00 0.00 0.00 89 1012.9
20260905141014 24 0 0.0 0.0 0.00 0.00 0.00 89 1012.5
20260905140213 24 0 0.0 0.0 0.00 0.00 0.00 90 1012.5
20260905135603 23 0 0.0 0.0 0.00 0.00 0.00 91 1012.5
20260905134803 23 0 0.0 0.0 0.00 0.00 0.00 92 1012.4
20260905134215 23 0 0.0 0.0 0.00 0.00 0.00 92 1012.4
20260905133203 23 0 0.0 0.0 0.00 0.00 0.00 92 1012.4
20260905132403 23 0 0.0 0.0 0.00 0.00 0.00 92 1012.4
20260905131603 23 182 0.0 4.8 0.00 0.00 0.00 92 1012.1
20260905130803 22 180 1.6 4.8 0.00 0.00 0.00 92 1012.0
20260905130003 22 175 3.2 6.4 0.00 0.00 0.00 92 1012.0
20260905125603 22 175 4.8 9.7 0.00 0.00 0.00 92 1012.0
20260905125017 22 175 6.4 11.3 0.00 0.00 0.00 92 1012.1
20260905124003 22 172 4.8 9.7 0.00 0.00 0.00 93 1012.0
20260905123414 22 169 3.2 8.0 0.00 0.00 0.00 94 1011.9
20260905122613 22 171 3.2 6.4 0.00 0.00 0.00 95 1011.9
20260905121603 22 176 4.8 8.0 0.00 0.00 0.00 95 1011.8
20260905120804 22 174 4.8 9.7 0.00 0.00 0.00 95 1011.6
20260905120214 22 173 4.8 8.0 0.00 0.00 0.00 96 1011.6
20260905115603 22 174 4.8 8.0 0.00 0.00 0.00 96 1011.6
20260905114803 22 170 3.2 6.4 0.00 0.00 0.00 96 1011.5
20260905114216 22 167 1.6 3.2 0.00 0.00 0.00 96 1011.5
20260905113415 22 169 1.6 9.7 0.00 0.00 0.00 96 1011.5
20260905112613 22 173 4.8 9.7 0.00 0.00 0.00 97 1011.4
20260905111603 22 173 4.8 8.0 0.00 0.00 0.00 97 1011.4
20260905110803 22 177 6.4 9.7 0.00 0.00 0.00 98 1011.3
20260905110215 22 179 4.8 8.0 0.00 0.00 0.00 98 1011.3
20260905105603 22 179 4.8 8.0 0.00 0.00 0.00 97 1011.2
20260905104803 22 176 4.8 8.0 0.00 0.00 0.00 97 1011.2